Change the Weather History Date:

Saturday, March 29, 2014

  Actual Average Record
Temperature  
Mean Temperature 43 °F 37 °F  
Max Temperature 50 °F 47 °F 81 °F (1945)
Min Temperature 36 °F 26 °F 6 °F (1959)
Degree Days  
Heating Degree Days 22 28  
Month to date heating degree days 1171 971  
Since 1 July heating degree days 6723 6351  
Cooling Degree Days 0 0  
Month to date cooling degree days 0 0  
Year to date cooling degree days 0 0  
Moisture  
Dew Point 36 °F    
Average Humidity 77    
Maximum Humidity 92    
Minimum Humidity 61    
Precipitation  
Precipitation 0.59 in 0.14 in 1.22 in (2003)
Month to date precipitation 2.31 3.09  
Year to date precipitation 8.69 8.69  
Sea Level Pressure  
Sea Level Pressure 30.09 in    
Wind  
Wind Speed 8 mph (NNE)    
Max Wind Speed 18 mph    
Max Gust Speed 27 mph    
Visibility 9 miles    
Events Rain    
T = Trace of Precipitation, MM = Missing Value Source: NWS Daily Summary

Daily Weather History Graph

Daily Weather History Graph

Search for Another Location

Airport or City:

Trip Planner

Search our weather history database for the weather conditions in past years. The results will help you decide how hot, cold, wet, or windy it might be!

Date:

Astronomy

Mar. 29, 2014 Rise Set
Actual Time 6:40 AM EDT 7:15 PM EDT
Civil Twilight 6:12 AM EDT 7:43 PM EDT
Nautical Twilight 5:39 AM EDT 8:17 PM EDT
Astronomical Twilight 5:04 AM EDT 8:51 PM EDT
Moon 5:49 AM EDT 6:16 PM EDT
Length of Visible Light 13h 31m
Length of Day
12h 34m
Waning Crescent, 2% of the Moon is Illuminated
Mar 29
Waning Crescent
Mar 30
New
Apr 7
First Quarter
Apr 15
Full
Apr 22
Last Quarter

Hourly Weather History & Observations

Time (EDT) Temp. Windchill Dew Point Humidity Pressure Visibility Wind Dir Wind Speed Gust Speed Precip Events Conditions
12:12 AM 44.1 °F 39.0 °F 41.0 °F 89% 30.06 in 9.0 mi WNW 9.2 mph 19.6 mph 0.00 in   Overcast
12:54 AM 43.0 °F 38.8 °F 39.0 °F 86% 30.09 in 10.0 mi Variable 6.9 mph - 0.00 in   Overcast
1:54 AM 42.1 °F 36.6 °F 37.9 °F 85% 30.12 in 10.0 mi NW 9.2 mph 17.3 mph N/A   Overcast
2:26 AM 41.0 °F 33.1 °F 37.0 °F 86% 30.12 in 10.0 mi WNW 15.0 mph 25.3 mph N/A   Mostly Cloudy
2:54 AM 41.0 °F 35.2 °F 36.0 °F 82% 30.13 in 10.0 mi West 9.2 mph 18.4 mph N/A   Overcast
3:42 AM 39.9 °F 33.4 °F 36.0 °F 86% 30.12 in 10.0 mi WNW 10.4 mph - N/A   Overcast
3:54 AM 39.9 °F 34.5 °F 36.0 °F 86% 30.12 in 10.0 mi WNW 8.1 mph - N/A   Overcast
4:41 AM 37.9 °F 30.5 °F 34.0 °F 86% 30.11 in 10.0 mi WNW 11.5 mph - N/A   Scattered Clouds
4:54 AM 37.0 °F 31.6 °F 34.0 °F 89% 30.12 in 10.0 mi WNW 6.9 mph - N/A   Clear
5:17 AM 37.9 °F 34.4 °F 34.0 °F 86% 30.14 in 10.0 mi Variable 4.6 mph - N/A   Mostly Cloudy
5:54 AM 37.9 °F 32.1 °F 34.0 °F 86% 30.14 in 10.0 mi NNW 8.1 mph - N/A   Overcast
6:54 AM 37.0 °F 31.6 °F 34.0 °F 89% 30.12 in 10.0 mi North 6.9 mph - N/A   Overcast
7:16 AM 37.0 °F 34.5 °F 33.1 °F 86% 30.14 in 10.0 mi WNW 3.5 mph - N/A   Scattered Clouds
7:25 AM 36.0 °F 33.3 °F 33.1 °F 89% 30.15 in 10.0 mi WSW 3.5 mph - N/A   Mostly Cloudy
7:54 AM 37.0 °F 34.5 °F 34.0 °F 89% 30.18 in 10.0 mi NW 3.5 mph - N/A   Overcast
8:32 AM 37.9 °F 35.5 °F 34.0 °F 86% 30.18 in 10.0 mi WNW 3.5 mph - N/A   Overcast
8:54 AM 39.0 °F - 35.1 °F 86% 30.18 in 10.0 mi Calm Calm - N/A   Overcast
9:26 AM 39.0 °F 34.8 °F 35.1 °F 86% 30.19 in 10.0 mi North 5.8 mph - N/A   Overcast
9:54 AM 39.9 °F - 35.1 °F 83% 30.19 in 10.0 mi Calm Calm - N/A   Overcast
10:20 AM 42.1 °F 38.4 °F 36.0 °F 79% 30.18 in 10.0 mi Variable 5.8 mph - N/A   Mostly Cloudy
10:54 AM 43.0 °F 41.3 °F 36.0 °F 76% 30.17 in 10.0 mi Variable 3.5 mph - N/A   Mostly Cloudy
11:02 AM 43.0 °F - 36.0 °F 76% 30.18 in 10.0 mi Calm Calm - N/A   Scattered Clouds
11:54 AM 46.9 °F - 37.0 °F 68% 30.15 in 10.0 mi ENE 6.9 mph - N/A   Scattered Clouds
12:16 PM 48.0 °F - 37.0 °F 66% 30.15 in 10.0 mi ENE 10.4 mph - N/A   Mostly Cloudy
12:54 PM 48.0 °F - 36.0 °F 63% 30.13 in 10.0 mi East 9.2 mph - N/A   Mostly Cloudy
1:08 PM 50.0 °F - 37.0 °F 61% 30.13 in 10.0 mi Variable 6.9 mph - N/A   Mostly Cloudy
1:54 PM 48.9 °F - 37.0 °F 64% 30.11 in 10.0 mi SE 10.4 mph - N/A   Scattered Clouds
2:54 PM 46.9 °F - 37.0 °F 68% 30.09 in 10.0 mi ESE 6.9 mph - N/A   Overcast
3:54 PM 46.9 °F - 37.0 °F 68% 30.06 in 10.0 mi East 6.9 mph - 0.00 in   Overcast
4:54 PM 45.0 °F 41.8 °F 39.0 °F 80% 30.04 in 9.0 mi Variable 5.8 mph - 0.01 in Rain Light Rain
5:14 PM 44.1 °F 40.8 °F 39.9 °F 85% 30.03 in 4.0 mi East 5.8 mph 19.6 mph 0.01 in Rain Light Rain
5:33 PM 44.1 °F 40.1 °F 39.9 °F 85% 30.02 in 7.0 mi ESE 6.9 mph - 0.02 in Rain Light Rain
5:54 PM 43.0 °F 38.2 °F 39.9 °F 89% 30.02 in 8.0 mi ESE 8.1 mph - 0.02 in Rain Light Rain
6:54 PM 41.0 °F 35.2 °F 37.0 °F 86% 30.02 in 7.0 mi ESE 9.2 mph - 0.04 in Rain Light Rain
7:54 PM 39.9 °F 32.5 °F 37.0 °F 89% 29.99 in 6.0 mi ENE 12.7 mph 19.6 mph 0.06 in Rain Light Rain
8:54 PM 37.9 °F 28.5 °F 36.0 °F 93% 29.96 in 6.0 mi NE 17.3 mph 24.2 mph 0.05 in Rain Light Rain
9:54 PM 37.9 °F 30.0 °F 35.1 °F 89% 29.93 in 6.0 mi ENE 12.7 mph 23.0 mph 0.08 in Rain Light Rain
10:54 PM 37.9 °F 32.1 °F 35.1 °F 89% 29.89 in 4.0 mi ENE 8.1 mph 24.2 mph 0.10 in Rain Light Rain
11:11 PM 37.9 °F 29.2 °F 35.1 °F 89% 29.87 in 5.0 mi ENE 15.0 mph 25.3 mph 0.01 in Rain Light Rain
11:54 PM 37.9 °F 30.9 °F 35.1 °F 89% 29.84 in 4.0 mi ENE 10.4 mph 23.0 mph 0.11 in Rain Rain